TimeCDT,TemperatureF,Dew PointF,Humidity,Sea Level PressureIn,VisibilityMPH,Wind Direction,Wind SpeedMPH,Gust SpeedMPH,PrecipitationIn,Events,Conditions,WindDirDegrees,DateUTC
12:53 AM,70.0,44.1,39,30.06,-9999.0,North,8.1,-,N/A,,Unknown,10,2012-10-15 05:53:00
1:53 AM,69.1,43.0,39,30.06,-9999.0,North,6.9,-,N/A,,Unknown,10,2012-10-15 06:53:00
2:53 AM,69.1,43.0,39,30.06,-9999.0,North,8.1,-,N/A,,Unknown,10,2012-10-15 07:53:00
3:53 AM,68.0,43.0,40,30.04,-9999.0,North,8.1,-,N/A,,Unknown,10,2012-10-15 08:53:00
4:53 AM,66.9,43.0,42,30.04,-9999.0,North,9.2,-,N/A,,Unknown,10,2012-10-15 09:53:00
5:53 AM,66.0,43.0,43,30.05,-9999.0,North,8.1,-,N/A,,Unknown,10,2012-10-15 10:53:00
6:53 AM,66.0,43.0,43,30.06,-9999.0,North,6.9,-,N/A,,Unknown,10,2012-10-15 11:53:00
7:53 AM,64.9,43.0,45,30.07,-9999.0,North,6.9,-,N/A,,Unknown,10,2012-10-15 12:53:00
8:53 AM,66.9,45.0,45,30.08,-9999.0,NE,5.8,-,N/A,,Unknown,40,2012-10-15 13:53:00
9:53 AM,69.1,45.0,42,30.09,-9999.0,NNE,8.1,-,N/A,,Unknown,20,2012-10-15 14:53:00
10:53 AM,71.1,45.0,39,30.08,-9999.0,NE,6.9,-,N/A,,Unknown,50,2012-10-15 15:53:00
11:53 AM,75.0,46.0,36,30.06,-9999.0,East,5.8,-,N/A,,Unknown,90,2012-10-15 16:53:00
1:53 PM,78.1,48.9,36,30.01,-9999.0,SE,11.5,-,N/A,,Unknown,140,2012-10-15 18:53:00
2:53 PM,79.0,48.0,34,29.97,-9999.0,ESE,9.2,-,N/A,,Unknown,120,2012-10-15 19:53:00
3:53 PM,78.1,48.0,35,29.95,-9999.0,SE,9.2,-,N/A,,Unknown,130,2012-10-15 20:53:00
4:53 PM,78.1,48.9,36,29.94,-9999.0,SE,8.1,-,N/A,,Unknown,130,2012-10-15 21:53:00
5:53 PM,77.0,51.1,40,29.94,-9999.0,ESE,6.9,-,N/A,,Unknown,120,2012-10-15 22:53:00
6:53 PM,75.9,53.1,45,29.94,-9999.0,East,5.8,-,N/A,,Unknown,100,2012-10-15 23:53:00
7:53 PM,73.0,55.0,53,29.94,-9999.0,ESE,5.8,-,N/A,,Unknown,110,2012-10-16 00:53:00
8:53 PM,72.0,55.9,57,29.94,-9999.0,East,3.5,-,N/A,,Unknown,90,2012-10-16 01:53:00
9:53 PM,71.1,57.0,61,29.95,-9999.0,East,3.5,-,N/A,,Unknown,90,2012-10-16 02:53:00
10:53 PM,70.0,57.9,65,29.94,-9999.0,NE,3.5,-,N/A,,Unknown,50,2012-10-16 03:53:00
11:53 PM,70.0,57.9,65,29.92,-9999.0,NNE,4.6,-,N/A,,Unknown,30,2012-10-16 04:53:00